カタログに戻る

CZ-4C R/B

運用中LEO
NORAD 39014·ROCKET BODY·🇨🇳 China

打ち上げ Nov 25, 2012 から Jiuquan Satellite Launch Center

Loading…

次のパス (今後24時間)

TLE

最新Source: Space-Track

元期: Sep 14, 2026, 13:11 UTC

1 39014U 12066D   26257.54972296  .00000675  00000-0  20234-3 0  9990
2 39014  63.3813 197.0924 0633965  12.0368 349.5043 13.72131743690800

AllMySatでCZ-4C R/Bをリアルタイム追跡

Download on the App Store